Time,TemperatureF,DewpointF,PressureIn,WindDirection,WindDirectionDegrees,WindSpeedMPH,WindSpeedGustMPH,Humidity,HourlyPrecipIn,Conditions,Clouds,dailyrainin,SolarRadiationWatts/m^2,SoftwareType,DateUTC
2013-09-04 00:01:00,74.0,61.0,29.86,SE,126,3.0,3.0,64,0.00,,,0.00,0,Wunderground v.1.15,2013-09-04 07:01:00,
2013-09-04 00:07:00,74.1,61.1,29.86,ESE,112,2.0,3.0,64,0.00,,,0.00,0,Wunderground v.1.15,2013-09-04 07:07:00,
2013-09-04 00:12:00,74.2,61.2,29.87,SE,128,1.0,2.0,64,0.00,,,0.00,0,Wunderground v.1.15,2013-09-04 07:12:00,
2013-09-04 00:18:00,74.0,61.0,29.87,SE,128,1.0,2.0,64,0.00,,,0.00,0,Wunderground v.1.15,2013-09-04 07:18:00,
2013-09-04 00:23:00,73.8,60.9,29.87,ESE,122,2.0,3.0,64,0.00,,,0.00,0,Wunderground v.1.15,2013-09-04 07:23:00,
2013-09-04 00:28:00,73.7,60.8,29.87,ESE,103,2.0,3.0,64,0.00,,,0.00,0,Wunderground v.1.15,2013-09-04 07:28:00,
2013-09-04 00:34:00,73.6,60.7,29.87,SSE,150,2.0,4.0,64,0.00,,,0.00,0,Wunderground v.1.15,2013-09-04 07:34:00,
2013-09-04 00:39:00,73.6,60.7,29.87,ESE,117,3.0,3.0,64,0.00,,,0.00,0,Wunderground v.1.15,2013-09-04 07:39:00,
2013-09-04 00:45:00,73.6,60.2,29.87,SE,128,2.0,3.0,63,0.00,,,0.00,0,Wunderground v.1.15,2013-09-04 07:45:00,
2013-09-04 00:50:00,73.2,60.3,29.87,ESE,123,2.0,3.0,64,0.00,,,0.00,0,Wunderground v.1.15,2013-09-04 07:50:00,
2013-09-04 00:55:00,73.1,60.2,29.87,SE,132,2.0,5.0,64,0.00,,,0.00,0,Wunderground v.1.15,2013-09-04 07:55:00,
2013-09-04 01:01:00,72.9,59.6,29.86,ESE,119,2.0,2.0,63,0.00,,,0.00,0,Wunderground v.1.15,2013-09-04 08:01:00,
2013-09-04 01:06:00,72.7,59.8,29.86,ESE,118,2.0,2.0,64,0.00,,,0.00,0,Wunderground v.1.15,2013-09-04 08:06:00,
2013-09-04 01:11:00,72.6,59.7,29.86,ESE,113,1.0,2.0,64,0.00,,,0.00,0,Wunderground v.1.15,2013-09-04 08:11:00,
2013-09-04 01:17:00,72.4,59.1,29.86,SE,128,2.0,3.0,63,0.00,,,0.00,0,Wunderground v.1.15,2013-09-04 08:17:00,
2013-09-04 01:23:00,72.2,59.3,29.86,ESE,118,3.0,3.0,64,0.00,,,0.00,0,Wunderground v.1.15,2013-09-04 08:23:00,
2013-09-04 01:28:00,72.1,59.2,29.86,ESE,113,3.0,3.0,64,0.00,,,0.00,0,Wunderground v.1.15,2013-09-04 08:28:00,
2013-09-04 01:33:00,71.9,59.5,29.86,SE,130,2.0,2.0,65,0.00,,,0.00,0,Wunderground v.1.15,2013-09-04 08:33:00,
2013-09-04 01:39:00,71.6,59.2,29.86,SE,129,1.0,1.0,65,0.00,,,0.00,0,Wunderground v.1.15,2013-09-04 08:39:00,
2013-09-04 01:44:00,71.5,59.1,29.86,ESE,113,2.0,2.0,65,0.00,,,0.00,0,Wunderground v.1.15,2013-09-04 08:44:00,
2013-09-04 01:50:00,71.4,59.0,29.86,SE,125,2.0,2.0,65,0.00,,,0.00,0,Wunderground v.1.15,2013-09-04 08:50:00,
2013-09-04 01:55:00,71.4,59.0,29.86,SE,128,2.0,4.0,65,0.00,,,0.00,0,Wunderground v.1.15,2013-09-04 08:55:00,
2013-09-04 02:01:00,71.1,59.2,29.86,SE,127,2.0,3.0,66,0.00,,,0.00,0,Wunderground v.1.15,2013-09-04 09:01:00,
2013-09-04 02:06:00,71.0,59.1,29.86,SE,139,3.0,4.0,66,0.00,,,0.00,0,Wunderground v.1.15,2013-09-04 09:06:00,
2013-09-04 02:11:00,71.2,59.3,29.86,ESE,119,3.0,4.0,66,0.00,,,0.00,0,Wunderground v.1.15,2013-09-04 09:11:00,
2013-09-04 02:17:00,71.3,58.9,29.86,SE,126,3.0,4.0,65,0.00,,,0.00,0,Wunderground v.1.15,2013-09-04 09:17:00,
2013-09-04 02:22:00,71.3,58.9,29.86,ESE,122,2.0,3.0,65,0.00,,,0.00,0,Wunderground v.1.15,2013-09-04 09:22:00,
2013-09-04 02:28:00,71.2,59.3,29.86,SE,130,2.0,3.0,66,0.00,,,0.00,0,Wunderground v.1.15,2013-09-04 09:28:00,
2013-09-04 02:33:00,71.1,58.7,29.86,ESE,122,2.0,2.0,65,0.00,,,0.00,0,Wunderground v.1.15,2013-09-04 09:33:00,
2013-09-04 02:39:00,71.0,58.6,29.86,ESE,115,2.0,2.0,65,0.00,,,0.00,0,Wunderground v.1.15,2013-09-04 09:39:00,
2013-09-04 02:44:00,70.9,58.5,29.86,ESE,116,2.0,3.0,65,0.00,,,0.00,0,Wunderground v.1.15,2013-09-04 09:44:00,
2013-09-04 02:50:00,70.8,58.9,29.86,East,98,2.0,5.0,66,0.00,,,0.00,0,Wunderground v.1.15,2013-09-04 09:50:00,
2013-09-04 02:56:00,70.9,59.0,29.86,SE,146,3.0,5.0,66,0.00,,,0.00,0,Wunderground v.1.15,2013-09-04 09:56:00,
2013-09-04 03:01:00,70.9,59.0,29.85,ESE,119,3.0,3.0,66,0.00,,,0.00,0,Wunderground v.1.15,2013-09-04 10:01:00,
2013-09-04 03:07:00,71.0,59.1,29.85,ESE,114,2.0,3.0,66,0.00,,,0.00,0,Wunderground v.1.15,2013-09-04 10:07:00,
2013-09-04 03:12:00,71.0,58.6,29.85,ESE,121,1.0,2.0,65,0.00,,,0.00,0,Wunderground v.1.15,2013-09-04 10:12:00,
2013-09-04 03:17:00,71.1,58.7,29.85,SE,126,1.0,2.0,65,0.00,,,0.00,0,Wunderground v.1.15,2013-09-04 10:17:00,
2013-09-04 03:22:00,70.9,58.5,29.85,SE,126,1.0,3.0,65,0.00,,,0.00,0,Wunderground v.1.15,2013-09-04 10:22:00,
2013-09-04 03:28:00,70.7,58.4,29.85,SE,144,2.0,4.0,65,0.00,,,0.00,0,Wunderground v.1.15,2013-09-04 10:28:00,
2013-09-04 03:33:00,70.7,58.4,29.85,SE,128,2.0,3.0,65,0.00,,,0.00,0,Wunderground v.1.15,2013-09-04 10:33:00,
2013-09-04 03:38:00,70.6,58.3,29.85,SE,135,2.0,4.0,65,0.00,,,0.00,0,Wunderground v.1.15,2013-09-04 10:38:00,
2013-09-04 03:44:00,70.6,58.3,29.85,ESE,123,2.0,2.0,65,0.00,,,0.00,0,Wunderground v.1.15,2013-09-04 10:44:00,
2013-09-04 03:49:00,70.6,58.3,29.85,SE,129,0.0,0.0,65,0.00,,,0.00,0,Wunderground v.1.15,2013-09-04 10:49:00,
2013-09-04 03:55:00,70.2,58.3,29.85,SE,129,0.0,5.0,66,0.00,,,0.00,0,Wunderground v.1.15,2013-09-04 10:55:00,
2013-09-04 04:01:00,70.1,58.6,29.85,SE,129,0.0,1.0,67,0.00,,,0.00,0,Wunderground v.1.15,2013-09-04 11:01:00,
2013-09-04 04:07:00,70.1,58.6,29.85,ESE,123,0.0,1.0,67,0.00,,,0.00,0,Wunderground v.1.15,2013-09-04 11:07:00,
2013-09-04 04:12:00,69.8,58.3,29.85,ESE,123,0.0,0.0,67,0.00,,,0.00,0,Wunderground v.1.15,2013-09-04 11:12:00,
2013-09-04 04:18:00,69.5,58.5,29.85,ESE,123,0.0,0.0,68,0.00,,,0.00,0,Wunderground v.1.15,2013-09-04 11:18:00,
2013-09-04 04:23:00,69.8,58.3,29.85,ESE,123,0.0,0.0,67,0.00,,,0.00,0,Wunderground v.1.15,2013-09-04 11:23:00,
2013-09-04 04:29:00,69.7,58.3,29.85,ESE,120,0.0,2.0,67,0.00,,,0.00,0,Wunderground v.1.15,2013-09-04 11:29:00,
2013-09-04 04:35:00,69.7,58.3,29.85,ESE,120,1.0,3.0,67,0.00,,,0.00,0,Wunderground v.1.15,2013-09-04 11:35:00,
2013-09-04 04:40:00,69.8,58.3,29.85,SE,126,2.0,2.0,67,0.00,,,0.00,0,Wunderground v.1.15,2013-09-04 11:40:00,
2013-09-04 04:45:00,70.0,58.5,29.85,ESE,113,1.0,2.0,67,0.00,,,0.00,0,Wunderground v.1.15,2013-09-04 11:45:00,
2013-09-04 04:50:00,70.0,58.1,29.85,SE,129,1.0,1.0,66,0.00,,,0.00,0,Wunderground v.1.15,2013-09-04 11:50:00,
2013-09-04 04:56:00,70.1,58.6,29.85,ESE,105,0.0,1.0,67,0.00,,,0.00,0,Wunderground v.1.15,2013-09-04 11:56:00,
2013-09-04 05:01:00,69.7,58.3,29.85,ESE,105,0.0,0.0,67,0.00,,,0.00,0,Wunderground v.1.15,2013-09-04 12:01:00,
2013-09-04 05:06:00,69.5,58.5,29.85,ESE,105,0.0,0.0,68,0.00,,,0.00,0,Wunderground v.1.15,2013-09-04 12:06:00,
2013-09-04 05:12:00,69.6,58.6,29.85,ESE,105,0.0,0.0,68,0.00,,,0.00,0,Wunderground v.1.15,2013-09-04 12:12:00,
2013-09-04 05:17:00,69.5,58.5,29.85,ESE,105,0.0,0.0,68,0.00,,,0.00,0,Wunderground v.1.15,2013-09-04 12:17:00,
2013-09-04 05:22:00,69.3,58.7,29.85,ESE,105,0.0,0.0,69,0.00,,,0.00,0,Wunderground v.1.15,2013-09-04 12:22:00,
2013-09-04 05:28:00,69.3,58.7,29.85,ESE,106,0.0,0.0,69,0.00,,,0.00,0,Wunderground v.1.15,2013-09-04 12:28:00,
2013-09-04 05:33:00,69.1,58.5,29.86,ESE,115,1.0,3.0,69,0.00,,,0.00,0,Wunderground v.1.15,2013-09-04 12:33:00,
2013-09-04 05:38:00,69.0,58.4,29.86,SE,126,2.0,3.0,69,0.00,,,0.00,0,Wunderground v.1.15,2013-09-04 12:38:00,
2013-09-04 05:43:00,68.9,58.3,29.86,SE,146,2.0,3.0,69,0.00,,,0.00,0,Wunderground v.1.15,2013-09-04 12:43:00,
2013-09-04 05:49:00,68.9,58.3,29.86,SE,142,1.0,1.0,69,0.00,,,0.00,0,Wunderground v.1.15,2013-09-04 12:49:00,
2013-09-04 05:54:00,69.1,58.5,29.86,SE,142,0.0,1.0,69,0.00,,,0.00,0,Wunderground v.1.15,2013-09-04 12:54:00,
2013-09-04 05:59:00,69.1,58.5,29.86,ESE,107,0.0,0.0,69,0.00,,,0.00,0,Wunderground v.1.15,2013-09-04 12:59:00,
2013-09-04 06:05:00,68.9,58.7,29.86,ESE,107,0.0,0.0,70,0.00,,,0.00,0,Wunderground v.1.15,2013-09-04 13:05:00,
2013-09-04 06:11:00,68.7,58.5,29.86,SE,126,0.0,2.0,70,0.00,,,0.00,0,Wunderground v.1.15,2013-09-04 13:11:00,
2013-09-04 06:16:00,68.8,59.0,29.86,ESE,119,1.0,2.0,71,0.00,,,0.00,0,Wunderground v.1.15,2013-09-04 13:16:00,
2013-09-04 06:22:00,69.2,59.0,29.86,ESE,121,1.0,2.0,70,0.00,,,0.00,0,Wunderground v.1.15,2013-09-04 13:22:00,
2013-09-04 06:27:00,69.2,59.0,29.86,SE,138,0.0,2.0,70,0.00,,,0.00,0,Wunderground v.1.15,2013-09-04 13:27:00,
2013-09-04 06:32:00,69.0,58.8,29.87,SE,125,0.0,0.0,70,0.00,,,0.00,5,Wunderground v.1.15,2013-09-04 13:32:00,
2013-09-04 06:38:00,69.0,58.8,29.87,West,267,0.0,0.0,70,0.00,,,0.00,9,Wunderground v.1.15,2013-09-04 13:38:00,
2013-09-04 06:44:00,69.2,59.0,29.87,West,267,0.0,0.0,70,0.00,,,0.00,11,Wunderground v.1.15,2013-09-04 13:44:00,
2013-09-04 06:49:00,69.2,59.0,29.87,WNW,294,0.0,0.0,70,0.00,,,0.00,12,Wunderground v.1.15,2013-09-04 13:49:00,
2013-09-04 06:55:00,69.1,58.9,29.88,East,101,0.0,1.0,70,0.00,,,0.00,16,Wunderground v.1.15,2013-09-04 13:55:00,
2013-09-04 07:00:00,68.7,58.9,29.88,ESE,123,0.0,0.0,71,0.00,,,0.00,18,Wunderground v.1.15,2013-09-04 14:00:00,
2013-09-04 07:05:00,68.7,59.3,29.88,ESE,123,0.0,0.0,72,0.00,,,0.00,60,Wunderground v.1.15,2013-09-04 14:05:00,
2013-09-04 07:11:00,69.2,59.4,29.88,ENE,74,0.0,0.0,71,0.00,,,0.00,70,Wunderground v.1.15,2013-09-04 14:11:00,
2013-09-04 07:16:00,69.9,60.1,29.88,ENE,70,0.0,0.0,71,0.00,,,0.00,23,Wunderground v.1.15,2013-09-04 14:16:00,
2013-09-04 07:21:00,70.7,60.0,29.88,NE,50,0.0,0.0,69,0.00,,,0.00,28,Wunderground v.1.15,2013-09-04 14:21:00,
2013-09-04 07:27:00,71.3,60.6,29.88,SW,225,0.0,2.0,69,0.00,,,0.00,28,Wunderground v.1.15,2013-09-04 14:27:00,
2013-09-04 07:32:00,71.5,60.8,29.88,SW,225,0.0,0.0,69,0.00,,,0.00,40,Wunderground v.1.15,2013-09-04 14:32:00,
2013-09-04 07:38:00,72.6,61.0,29.88,SW,225,0.0,0.0,67,0.00,,,0.00,37,Wunderground v.1.15,2013-09-04 14:38:00,
2013-09-04 07:43:00,73.1,61.1,29.88,SW,225,0.0,0.0,66,0.00,,,0.00,181,Wunderground v.1.15,2013-09-04 14:43:00,
2013-09-04 07:48:00,73.9,61.4,29.88,SW,225,0.0,0.0,65,0.00,,,0.00,188,Wunderground v.1.15,2013-09-04 14:48:00,
2013-09-04 07:53:00,74.7,61.3,29.88,SW,225,0.0,0.0,63,0.00,,,0.00,139,Wunderground v.1.15,2013-09-04 14:53:00,
2013-09-04 07:59:00,75.5,61.6,29.88,SW,225,0.0,0.0,62,0.00,,,0.00,192,Wunderground v.1.15,2013-09-04 14:59:00,
2013-09-04 08:05:00,76.3,61.9,29.88,SW,225,0.0,0.0,61,0.00,,,0.00,114,Wunderground v.1.15,2013-09-04 15:05:00,
2013-09-04 08:10:00,77.0,62.0,29.88,WSW,256,0.0,0.0,60,0.00,,,0.00,86,Wunderground v.1.15,2013-09-04 15:10:00,
2013-09-04 08:16:00,78.0,62.5,29.88,WNW,299,1.0,2.0,59,0.00,,,0.00,74,Wunderground v.1.15,2013-09-04 15:16:00,
2013-09-04 08:22:00,78.2,63.2,29.88,NW,315,2.0,3.0,60,0.00,,,0.00,54,Wunderground v.1.15,2013-09-04 15:22:00,
2013-09-04 08:27:00,78.6,64.0,29.88,NW,309,2.0,3.0,61,0.00,,,0.00,53,Wunderground v.1.15,2013-09-04 15:27:00,
2013-09-04 08:32:00,78.9,64.8,29.88,West,261,2.0,4.0,62,0.00,,,0.00,132,Wunderground v.1.15,2013-09-04 15:32:00,
2013-09-04 08:38:00,79.3,64.7,29.88,West,277,3.0,4.0,61,0.00,,,0.00,350,Wunderground v.1.15,2013-09-04 15:38:00,
2013-09-04 08:43:00,80.2,65.5,29.88,WNW,287,2.0,4.0,61,0.00,,,0.00,366,Wunderground v.1.15,2013-09-04 15:43:00,
2013-09-04 08:49:00,81.1,65.9,29.88,WSW,240,2.0,2.0,60,0.00,,,0.00,381,Wunderground v.1.15,2013-09-04 15:49:00,
2013-09-04 08:54:00,81.4,65.2,29.88,SSW,213,1.0,2.0,58,0.00,,,0.00,399,Wunderground v.1.15,2013-09-04 15:54:00,
2013-09-04 08:59:00,81.5,63.8,29.88,WNW,295,2.0,2.0,55,0.00,,,0.00,415,Wunderground v.1.15,2013-09-04 15:59:00,
2013-09-04 09:05:00,82.1,64.3,29.88,WNW,283,3.0,4.0,55,0.00,,,0.00,432,Wunderground v.1.15,2013-09-04 16:05:00,
2013-09-04 09:11:00,83.1,64.7,29.88,WSW,244,2.0,3.0,54,0.00,,,0.00,450,Wunderground v.1.15,2013-09-04 16:11:00,
2013-09-04 09:16:00,83.8,65.4,29.88,SW,217,2.0,4.0,54,0.00,,,0.00,464,Wunderground v.1.15,2013-09-04 16:16:00,
2013-09-04 09:21:00,83.9,64.9,29.88,SSW,192,3.0,3.0,53,0.00,,,0.00,480,Wunderground v.1.15,2013-09-04 16:21:00,
2013-09-04 09:27:00,84.6,65.0,29.88,SW,232,3.0,4.0,52,0.00,,,0.00,494,Wunderground v.1.15,2013-09-04 16:27:00,
2013-09-04 09:32:00,85.1,64.4,29.88,WNW,285,3.0,3.0,50,0.00,,,0.00,506,Wunderground v.1.15,2013-09-04 16:32:00,
2013-09-04 09:37:00,85.6,64.2,29.88,SW,226,2.0,3.0,49,0.00,,,0.00,520,Wunderground v.1.15,2013-09-04 16:37:00,
2013-09-04 09:43:00,86.0,64.6,29.88,SW,214,2.0,4.0,49,0.00,,,0.00,538,Wunderground v.1.15,2013-09-04 16:43:00,
2013-09-04 09:48:00,86.3,64.3,29.88,WSW,250,3.0,4.0,48,0.00,,,0.00,550,Wunderground v.1.15,2013-09-04 16:48:00,
2013-09-04 09:53:00,86.8,63.5,29.88,SSE,159,3.0,4.0,46,0.00,,,0.00,563,Wunderground v.1.15,2013-09-04 16:53:00,
2013-09-04 09:58:00,87.3,64.0,29.88,SW,215,4.0,5.0,46,0.00,,,0.00,575,Wunderground v.1.15,2013-09-04 16:58:00,
2013-09-04 10:04:00,87.6,64.3,29.88,SW,221,4.0,7.0,46,0.00,,,0.00,587,Wunderground v.1.15,2013-09-04 17:04:00,
2013-09-04 10:09:00,88.3,64.9,29.88,SSW,196,4.0,6.0,46,0.00,,,0.00,591,Wunderground v.1.15,2013-09-04 17:09:00,
2013-09-04 10:15:00,88.6,64.5,29.88,South,190,3.0,6.0,45,0.00,,,0.00,601,Wunderground v.1.15,2013-09-04 17:15:00,
2013-09-04 10:20:00,89.0,64.9,29.88,SSW,209,3.0,5.0,45,0.00,,,0.00,615,Wunderground v.1.15,2013-09-04 17:20:00,
2013-09-04 10:25:00,89.5,66.0,29.87,SSW,194,4.0,6.0,46,0.00,,,0.00,631,Wunderground v.1.15,2013-09-04 17:25:00,
2013-09-04 10:30:00,89.8,66.3,29.87,South,188,4.0,7.0,46,0.00,,,0.00,638,Wunderground v.1.15,2013-09-04 17:30:00,
2013-09-04 10:36:00,90.2,66.6,29.88,SW,234,4.0,7.0,46,0.00,,,0.00,650,Wunderground v.1.15,2013-09-04 17:36:00,
2013-09-04 10:41:00,90.5,66.3,29.87,SSW,196,3.0,6.0,45,0.00,,,0.00,663,Wunderground v.1.15,2013-09-04 17:41:00,
2013-09-04 10:46:00,90.7,65.8,29.87,SW,229,3.0,6.0,44,0.00,,,0.00,677,Wunderground v.1.15,2013-09-04 17:46:00,
2013-09-04 10:52:00,91.2,65.6,29.87,SW,227,4.0,6.0,43,0.00,,,0.00,687,Wunderground v.1.15,2013-09-04 17:52:00,
2013-09-04 10:57:00,91.0,64.7,29.87,West,269,3.0,6.0,42,0.00,,,0.00,696,Wunderground v.1.15,2013-09-04 17:57:00,
2013-09-04 11:03:00,91.3,64.3,29.87,WNW,299,3.0,4.0,41,0.00,,,0.00,707,Wunderground v.1.15,2013-09-04 18:03:00,
2013-09-04 11:08:00,91.6,64.6,29.87,NW,315,2.0,5.0,41,0.00,,,0.00,714,Wunderground v.1.15,2013-09-04 18:08:00,
2013-09-04 11:13:00,91.7,64.0,29.87,West,277,2.0,4.0,40,0.00,,,0.00,722,Wunderground v.1.15,2013-09-04 18:13:00,
2013-09-04 11:19:00,92.8,64.9,29.87,West,266,3.0,3.0,40,0.00,,,0.00,729,Wunderground v.1.15,2013-09-04 18:19:00,
2013-09-04 11:24:00,93.2,64.6,29.87,West,281,4.0,5.0,39,0.00,,,0.00,737,Wunderground v.1.15,2013-09-04 18:24:00,
2013-09-04 11:30:00,93.2,65.3,29.86,West,267,4.0,4.0,40,0.00,,,0.00,744,Wunderground v.1.15,2013-09-04 18:30:00,
2013-09-04 11:35:00,93.3,65.4,29.86,SW,225,4.0,7.0,40,0.00,,,0.00,749,Wunderground v.1.15,2013-09-04 18:35:00,
2013-09-04 11:40:00,93.7,65.0,29.86,West,259,4.0,4.0,39,0.00,,,0.00,758,Wunderground v.1.15,2013-09-04 18:40:00,
2013-09-04 11:46:00,94.2,63.9,29.86,South,189,4.0,6.0,37,0.00,,,0.00,765,Wunderground v.1.15,2013-09-04 18:46:00,
2013-09-04 11:51:00,95.0,63.9,29.86,SW,227,3.0,4.0,36,0.00,,,0.00,768,Wunderground v.1.15,2013-09-04 18:51:00,
2013-09-04 11:57:00,95.3,64.1,29.86,SSW,199,3.0,8.0,36,0.00,,,0.00,772,Wunderground v.1.15,2013-09-04 18:57:00,
2013-09-04 12:03:00,95.2,64.0,29.86,SSW,195,5.0,8.0,36,0.00,,,0.00,777,Wunderground v.1.15,2013-09-04 19:03:00,
2013-09-04 12:08:00,95.0,63.9,29.85,WNW,290,6.0,8.0,36,0.00,,,0.00,780,Wunderground v.1.15,2013-09-04 19:08:00,
2013-09-04 12:14:00,95.8,63.8,29.85,South,188,5.0,6.0,35,0.00,,,0.00,784,Wunderground v.1.15,2013-09-04 19:14:00,
2013-09-04 12:20:00,96.2,64.1,29.85,SSW,198,4.0,7.0,35,0.00,,,0.00,789,Wunderground v.1.15,2013-09-04 19:20:00,
2013-09-04 12:25:00,95.9,63.8,29.84,NW,317,5.0,9.0,35,0.00,,,0.00,789,Wunderground v.1.15,2013-09-04 19:25:00,
2013-09-04 12:30:00,96.0,63.9,29.84,SW,236,5.0,7.0,35,0.00,,,0.00,793,Wunderground v.1.15,2013-09-04 19:30:00,
2013-09-04 12:36:00,96.3,63.4,29.84,West,279,4.0,7.0,34,0.00,,,0.00,791,Wunderground v.1.15,2013-09-04 19:36:00,
2013-09-04 12:41:00,96.8,63.0,29.84,SW,229,4.0,4.0,33,0.00,,,0.00,795,Wunderground v.1.15,2013-09-04 19:41:00,
2013-09-04 12:46:00,96.9,63.0,29.84,West,278,4.0,7.0,33,0.00,,,0.00,795,Wunderground v.1.15,2013-09-04 19:46:00,
2013-09-04 12:52:00,97.6,62.8,29.84,SW,220,5.0,8.0,32,0.00,,,0.00,798,Wunderground v.1.15,2013-09-04 19:52:00,
2013-09-04 12:57:00,97.4,62.6,29.84,NW,309,4.0,8.0,32,0.00,,,0.00,789,Wunderground v.1.15,2013-09-04 19:57:00,
2013-09-04 13:03:00,97.6,61.9,29.84,NW,308,3.0,4.0,31,0.00,,,0.00,791,Wunderground v.1.15,2013-09-04 20:03:00,
2013-09-04 13:08:00,97.3,62.5,29.84,West,269,4.0,8.0,32,0.00,,,0.00,791,Wunderground v.1.15,2013-09-04 20:08:00,
2013-09-04 13:14:00,96.4,61.7,29.84,NW,306,5.0,6.0,32,0.00,,,0.00,788,Wunderground v.1.15,2013-09-04 20:14:00,
2013-09-04 13:19:00,97.3,63.4,29.83,South,180,4.0,4.0,33,0.00,,,0.00,786,Wunderground v.1.15,2013-09-04 20:19:00,
2013-09-04 13:25:00,97.9,63.0,29.83,WSW,254,4.0,6.0,32,0.00,,,0.00,779,Wunderground v.1.15,2013-09-04 20:25:00,
2013-09-04 13:31:00,97.8,63.8,29.83,SSW,203,5.0,7.0,33,0.00,,,0.00,777,Wunderground v.1.15,2013-09-04 20:31:00,
2013-09-04 13:36:00,98.0,64.0,29.83,NW,312,6.0,9.0,33,0.00,,,0.00,770,Wunderground v.1.15,2013-09-04 20:36:00,
2013-09-04 13:42:00,98.3,65.1,29.83,SW,232,6.0,8.0,34,0.00,,,0.00,763,Wunderground v.1.15,2013-09-04 20:42:00,
2013-09-04 13:47:00,97.7,65.4,29.83,SSW,208,5.0,8.0,35,0.00,,,0.00,759,Wunderground v.1.15,2013-09-04 20:47:00,
2013-09-04 13:53:00,97.5,64.4,29.83,SSW,213,5.0,6.0,34,0.00,,,0.00,749,Wunderground v.1.15,2013-09-04 20:53:00,
2013-09-04 13:58:00,97.5,65.2,29.83,SE,140,5.0,10.0,35,0.00,,,0.00,749,Wunderground v.1.15,2013-09-04 20:58:00,
2013-09-04 14:04:00,97.4,65.2,29.83,SSW,202,5.0,6.0,35,0.00,,,0.00,737,Wunderground v.1.15,2013-09-04 21:04:00,
2013-09-04 14:09:00,97.5,65.2,29.83,SSW,209,5.0,5.0,35,0.00,,,0.00,729,Wunderground v.1.15,2013-09-04 21:09:00,
2013-09-04 14:14:00,97.0,65.6,29.83,West,271,6.0,6.0,36,0.00,,,0.00,722,Wunderground v.1.15,2013-09-04 21:14:00,
2013-09-04 14:20:00,97.0,65.6,29.83,SSW,207,6.0,8.0,36,0.00,,,0.00,715,Wunderground v.1.15,2013-09-04 21:20:00,
2013-09-04 14:25:00,97.2,65.8,29.82,SSW,212,6.0,8.0,36,0.00,,,0.00,707,Wunderground v.1.15,2013-09-04 21:25:00,
2013-09-04 14:31:00,97.1,65.7,29.82,SW,228,6.0,8.0,36,0.00,,,0.00,703,Wunderground v.1.15,2013-09-04 21:31:00,
2013-09-04 14:36:00,96.7,64.5,29.82,SW,215,6.0,10.0,35,0.00,,,0.00,693,Wunderground v.1.15,2013-09-04 21:36:00,
2013-09-04 14:41:00,97.2,64.2,29.82,SSW,192,6.0,7.0,34,0.00,,,0.00,686,Wunderground v.1.15,2013-09-04 21:41:00,
2013-09-04 14:47:00,97.5,63.6,29.82,South,177,5.0,10.0,33,0.00,,,0.00,677,Wunderground v.1.15,2013-09-04 21:47:00,
2013-09-04 14:52:00,97.7,63.7,29.82,SSW,203,4.0,5.0,33,0.00,,,0.00,666,Wunderground v.1.15,2013-09-04 21:52:00,
2013-09-04 14:58:00,97.2,63.3,29.81,WSW,240,6.0,13.0,33,0.00,,,0.00,657,Wunderground v.1.15,2013-09-04 21:58:00,
2013-09-04 15:03:00,97.0,63.1,29.81,South,184,6.0,10.0,33,0.00,,,0.00,647,Wunderground v.1.15,2013-09-04 22:03:00,
2013-09-04 15:08:00,97.3,62.5,29.81,West,261,5.0,10.0,32,0.00,,,0.00,638,Wunderground v.1.15,2013-09-04 22:08:00,
2013-09-04 15:14:00,98.0,63.1,29.81,South,184,5.0,7.0,32,0.00,,,0.00,624,Wunderground v.1.15,2013-09-04 22:14:00,
2013-09-04 15:19:00,97.1,61.4,29.81,South,186,5.0,5.0,31,0.00,,,0.00,615,Wunderground v.1.15,2013-09-04 22:19:00,
2013-09-04 15:25:00,97.1,62.3,29.81,SSW,207,6.0,8.0,32,0.00,,,0.00,598,Wunderground v.1.15,2013-09-04 22:25:00,
2013-09-04 15:30:00,96.6,61.9,29.81,SSW,211,6.0,7.0,32,0.00,,,0.00,587,Wunderground v.1.15,2013-09-04 22:30:00,
2013-09-04 15:35:00,96.8,62.1,29.81,WSW,243,5.0,7.0,32,0.00,,,0.00,578,Wunderground v.1.15,2013-09-04 22:35:00,
2013-09-04 15:41:00,97.1,62.3,29.81,South,186,6.0,8.0,32,0.00,,,0.00,561,Wunderground v.1.15,2013-09-04 22:41:00,
2013-09-04 15:46:00,97.3,61.6,29.81,SSW,209,5.0,8.0,31,0.00,,,0.00,547,Wunderground v.1.15,2013-09-04 22:46:00,
2013-09-04 15:52:00,97.0,61.4,29.81,West,274,4.0,7.0,31,0.00,,,0.00,529,Wunderground v.1.15,2013-09-04 22:52:00,
2013-09-04 15:57:00,96.8,62.1,29.81,WSW,243,5.0,13.0,32,0.00,,,0.00,512,Wunderground v.1.15,2013-09-04 22:57:00,
2013-09-04 16:03:00,96.9,61.3,29.81,West,279,5.0,9.0,31,0.00,,,0.00,496,Wunderground v.1.15,2013-09-04 23:03:00,
2013-09-04 16:08:00,96.9,62.2,29.81,WSW,250,6.0,11.0,32,0.00,,,0.00,482,Wunderground v.1.15,2013-09-04 23:08:00,
2013-09-04 16:14:00,96.3,60.7,29.81,SW,232,6.0,10.0,31,0.00,,,0.00,462,Wunderground v.1.15,2013-09-04 23:14:00,
2013-09-04 16:19:00,96.5,61.8,29.81,WSW,240,4.0,5.0,32,0.00,,,0.00,448,Wunderground v.1.15,2013-09-04 23:19:00,
2013-09-04 16:24:00,96.4,59.9,29.81,West,275,3.0,6.0,30,0.00,,,0.00,434,Wunderground v.1.15,2013-09-04 23:24:00,
2013-09-04 16:30:00,96.0,59.6,29.81,West,272,4.0,6.0,30,0.00,,,0.00,415,Wunderground v.1.15,2013-09-04 23:30:00,
2013-09-04 16:35:00,95.5,60.1,29.81,West,267,6.0,8.0,31,0.00,,,0.00,396,Wunderground v.1.15,2013-09-04 23:35:00,
2013-09-04 16:40:00,94.8,59.5,29.81,SW,225,5.0,6.0,31,0.00,,,0.00,385,Wunderground v.1.15,2013-09-04 23:40:00,
2013-09-04 16:45:00,95.3,59.9,29.81,WSW,253,5.0,7.0,31,0.00,,,0.00,369,Wunderground v.1.15,2013-09-04 23:45:00,
2013-09-04 16:51:00,96.2,59.7,29.81,West,261,5.0,6.0,30,0.00,,,0.00,348,Wunderground v.1.15,2013-09-04 23:51:00,
2013-09-04 16:56:00,95.5,60.1,29.81,WSW,240,4.0,12.0,31,0.00,,,0.00,336,Wunderground v.1.15,2013-09-04 23:56:00,
2013-09-04 17:02:00,95.5,59.1,29.81,WNW,292,4.0,5.0,30,0.00,,,0.00,315,Wunderground v.1.15,2013-09-05 00:02:00,
2013-09-04 17:07:00,95.1,59.7,29.81,WNW,287,5.0,7.0,31,0.00,,,0.00,308,Wunderground v.1.15,2013-09-05 00:07:00,
2013-09-04 17:12:00,94.2,58.9,29.82,West,261,5.0,5.0,31,0.00,,,0.00,292,Wunderground v.1.15,2013-09-05 00:12:00,
2013-09-04 17:17:00,93.8,59.5,29.82,NW,308,4.0,6.0,32,0.00,,,0.00,278,Wunderground v.1.15,2013-09-05 00:17:00,
2013-09-04 17:23:00,93.5,60.1,29.81,WNW,285,4.0,5.0,33,0.00,,,0.00,255,Wunderground v.1.15,2013-09-05 00:23:00,
2013-09-04 17:28:00,92.7,59.4,29.81,WNW,303,5.0,7.0,33,0.00,,,0.00,236,Wunderground v.1.15,2013-09-05 00:28:00,
2013-09-04 17:33:00,92.8,59.5,29.82,SW,233,4.0,6.0,33,0.00,,,0.00,221,Wunderground v.1.15,2013-09-05 00:33:00,
2013-09-04 17:39:00,92.4,60.0,29.82,SW,231,4.0,8.0,34,0.00,,,0.00,204,Wunderground v.1.15,2013-09-05 00:39:00,
2013-09-04 17:44:00,92.0,59.6,29.82,WSW,252,4.0,8.0,34,0.00,,,0.00,186,Wunderground v.1.15,2013-09-05 00:44:00,
2013-09-04 17:49:00,91.6,59.3,29.82,WSW,237,4.0,5.0,34,0.00,,,0.00,169,Wunderground v.1.15,2013-09-05 00:49:00,
2013-09-04 17:55:00,91.3,59.0,29.81,WSW,246,4.0,7.0,34,0.00,,,0.00,149,Wunderground v.1.15,2013-09-05 00:55:00,
2013-09-04 18:00:00,91.2,59.7,29.81,West,267,4.0,4.0,35,0.00,,,0.00,132,Wunderground v.1.15,2013-09-05 01:00:00,
2013-09-04 18:05:00,91.0,58.7,29.82,WNW,297,3.0,5.0,34,0.00,,,0.00,116,Wunderground v.1.15,2013-09-05 01:05:00,
2013-09-04 18:12:00,90.7,59.3,29.82,WNW,285,3.0,5.0,35,0.00,,,0.00,97,Wunderground v.1.15,2013-09-05 01:12:00,
2013-09-04 18:17:00,90.3,58.1,29.82,WNW,294,3.0,6.0,34,0.00,,,0.00,83,Wunderground v.1.15,2013-09-05 01:17:00,
2013-09-04 18:22:00,89.9,57.8,29.82,West,262,4.0,5.0,34,0.00,,,0.00,69,Wunderground v.1.15,2013-09-05 01:22:00,
2013-09-04 18:27:00,89.6,57.5,29.82,WSW,258,4.0,6.0,34,0.00,,,0.00,54,Wunderground v.1.15,2013-09-05 01:27:00,
2013-09-04 18:33:00,89.1,57.9,29.82,NW,306,4.0,4.0,35,0.00,,,0.00,40,Wunderground v.1.15,2013-09-05 01:33:00,
2013-09-04 18:38:00,88.7,57.5,29.82,West,277,4.0,6.0,35,0.00,,,0.00,32,Wunderground v.1.15,2013-09-05 01:38:00,
2013-09-04 18:44:00,88.5,57.4,29.82,WNW,288,4.0,6.0,35,0.00,,,0.00,21,Wunderground v.1.15,2013-09-05 01:44:00,
2013-09-04 18:50:00,88.4,57.3,29.82,WSW,240,3.0,3.0,35,0.00,,,0.00,18,Wunderground v.1.15,2013-09-05 01:50:00,
2013-09-04 18:56:00,88.1,57.8,29.82,West,269,2.0,7.0,36,0.00,,,0.00,14,Wunderground v.1.15,2013-09-05 01:56:00,
2013-09-04 19:01:00,87.8,57.5,29.82,West,261,2.0,2.0,36,0.00,,,0.00,11,Wunderground v.1.15,2013-09-05 02:01:00,
2013-09-04 19:07:00,87.4,57.2,29.82,WSW,248,2.0,5.0,36,0.00,,,0.00,7,Wunderground v.1.15,2013-09-05 02:07:00,
2013-09-04 19:12:00,87.2,57.0,29.82,West,259,2.0,3.0,36,0.00,,,0.00,5,Wunderground v.1.15,2013-09-05 02:12:00,
2013-09-04 19:17:00,87.0,56.8,29.82,West,269,2.0,3.0,36,0.00,,,0.00,0,Wunderground v.1.15,2013-09-05 02:17:00,
2013-09-04 19:22:00,86.8,57.4,29.82,West,265,1.0,1.0,37,0.00,,,0.00,0,Wunderground v.1.15,2013-09-05 02:22:00,
2013-09-04 19:28:00,86.6,57.2,29.82,West,260,1.0,1.0,37,0.00,,,0.00,0,Wunderground v.1.15,2013-09-05 02:28:00,
2013-09-04 19:33:00,86.4,57.0,29.83,SW,227,0.0,4.0,37,0.00,,,0.00,0,Wunderground v.1.15,2013-09-05 02:33:00,
2013-09-04 19:38:00,86.1,57.5,29.83,SW,230,1.0,4.0,38,0.00,,,0.00,0,Wunderground v.1.15,2013-09-05 02:38:00,
2013-09-04 19:44:00,85.7,57.9,29.83,SW,216,1.0,3.0,39,0.00,,,0.00,0,Wunderground v.1.15,2013-09-05 02:44:00,
2013-09-04 19:49:00,85.5,57.7,29.83,WSW,246,1.0,1.0,39,0.00,,,0.00,0,Wunderground v.1.15,2013-09-05 02:49:00,
2013-09-04 19:54:00,85.3,57.5,29.83,SW,234,0.0,1.0,39,0.00,,,0.00,0,Wunderground v.1.15,2013-09-05 02:54:00,
2013-09-04 19:59:00,84.9,57.9,29.83,SW,222,0.0,0.0,40,0.00,,,0.00,0,Wunderground v.1.15,2013-09-05 02:59:00,
2013-09-04 20:05:00,84.5,58.2,29.83,SW,226,0.0,1.0,41,0.00,,,0.00,0,Wunderground v.1.15,2013-09-05 03:05:00,
2013-09-04 20:10:00,84.3,58.0,29.83,WSW,248,0.0,0.0,41,0.00,,,0.00,0,Wunderground v.1.15,2013-09-05 03:10:00,
2013-09-04 20:16:00,84.2,57.9,29.83,WNW,293,0.0,1.0,41,0.00,,,0.00,0,Wunderground v.1.15,2013-09-05 03:16:00,
2013-09-04 20:21:00,84.0,57.8,29.84,WNW,294,0.0,0.0,41,0.00,,,0.00,0,Wunderground v.1.15,2013-09-05 03:21:00,
2013-09-04 20:27:00,83.6,58.1,29.84,WNW,294,0.0,0.0,42,0.00,,,0.00,0,Wunderground v.1.15,2013-09-05 03:27:00,
2013-09-04 20:32:00,82.1,57.4,29.84,WNW,294,0.0,0.0,43,0.00,,,0.00,0,Wunderground v.1.15,2013-09-05 03:32:00,
2013-09-04 20:38:00,82.0,57.9,29.84,WNW,294,0.0,0.0,44,0.00,,,0.00,0,Wunderground v.1.15,2013-09-05 03:38:00,
2013-09-04 20:43:00,81.7,58.3,29.84,WNW,294,0.0,0.0,45,0.00,,,0.00,0,Wunderground v.1.15,2013-09-05 03:43:00,
2013-09-04 20:48:00,81.0,57.0,29.84,SE,139,0.0,0.0,44,0.00,,,0.00,0,Wunderground v.1.15,2013-09-05 03:48:00,
2013-09-04 20:54:00,80.5,57.2,29.85,SE,126,0.0,1.0,45,0.00,,,0.00,0,Wunderground v.1.15,2013-09-05 03:54:00,
2013-09-04 20:59:00,80.5,57.2,29.85,SE,126,0.0,0.0,45,0.00,,,0.00,0,Wunderground v.1.15,2013-09-05 03:59:00,
2013-09-04 21:01:00,80.4,57.1,29.85,SE,126,0.0,0.0,45,0.00,,,0.00,0,Wunderground v.1.15,2013-09-05 04:01:00,
2013-09-04 21:03:00,80.3,57.0,29.85,SE,126,0.0,1.0,45,0.00,,,0.00,0,Wunderground v.1.15,2013-09-05 04:03:00,
2013-09-04 21:05:00,79.9,56.7,29.85,SE,126,0.0,1.0,45,0.00,,,0.00,0,Wunderground v.1.15,2013-09-05 04:05:00,
2013-09-04 21:06:00,79.6,56.4,29.85,SE,126,0.0,1.0,45,0.00,,,0.00,0,Wunderground v.1.15,2013-09-05 04:06:00,
2013-09-04 21:08:00,78.9,56.4,29.85,SE,126,0.0,1.0,46,0.00,,,0.00,0,Wunderground v.1.15,2013-09-05 04:08:00,
2013-09-04 21:13:00,78.4,57.1,29.85,SE,125,0.0,0.0,48,0.00,,,0.00,0,Wunderground v.1.15,2013-09-05 04:13:00,
2013-09-04 21:19:00,78.7,56.8,29.85,SE,125,0.0,0.0,47,0.00,,,0.00,0,Wunderground v.1.15,2013-09-05 04:19:00,
2013-09-04 21:24:00,78.8,56.9,29.85,SE,125,0.0,0.0,47,0.00,,,0.00,0,Wunderground v.1.15,2013-09-05 04:24:00,
2013-09-04 21:29:00,78.6,56.7,29.85,SE,125,0.0,0.0,47,0.00,,,0.00,0,Wunderground v.1.15,2013-09-05 04:29:00,
2013-09-04 21:34:00,78.6,56.7,29.85,SE,125,0.0,0.0,47,0.00,,,0.00,0,Wunderground v.1.15,2013-09-05 04:34:00,
2013-09-04 21:37:00,78.5,56.6,29.85,SE,125,0.0,0.0,47,0.00,,,0.00,0,Wunderground v.1.15,2013-09-05 04:37:00,
2013-09-04 21:42:00,78.0,56.7,29.85,ESE,119,0.0,2.0,48,0.00,,,0.00,0,Wunderground v.1.15,2013-09-05 04:42:00,
2013-09-04 21:47:00,77.6,56.4,29.85,ESE,114,0.0,2.0,48,0.00,,,0.00,0,Wunderground v.1.15,2013-09-05 04:47:00,
2013-09-04 21:52:00,77.1,56.5,29.85,SE,126,0.0,1.0,49,0.00,,,0.00,0,Wunderground v.1.15,2013-09-05 04:52:00,
2013-09-04 21:58:00,76.7,57.2,29.85,ESE,122,0.0,1.0,51,0.00,,,0.00,0,Wunderground v.1.15,2013-09-05 04:58:00,
2013-09-04 22:03:00,76.9,56.8,29.85,ESE,122,0.0,0.0,50,0.00,,,0.00,0,Wunderground v.1.15,2013-09-05 05:03:00,
2013-09-04 22:09:00,77.1,57.0,29.85,ESE,122,0.0,0.0,50,0.00,,,0.00,0,Wunderground v.1.15,2013-09-05 05:09:00,
2013-09-04 22:14:00,77.3,56.6,29.85,ESE,122,0.0,0.0,49,0.00,,,0.00,0,Wunderground v.1.15,2013-09-05 05:14:00,
2013-09-04 22:19:00,77.0,56.9,29.85,ESE,121,0.0,0.0,50,0.00,,,0.00,0,Wunderground v.1.15,2013-09-05 05:19:00,
2013-09-04 22:24:00,76.6,56.6,29.85,SE,138,0.0,1.0,50,0.00,,,0.00,0,Wunderground v.1.15,2013-09-05 05:24:00,
2013-09-04 22:30:00,76.1,56.7,29.86,ESE,119,0.0,0.0,51,0.00,,,0.00,0,Wunderground v.1.15,2013-09-05 05:30:00,
2013-09-04 22:35:00,76.2,56.7,29.86,ESE,119,0.0,1.0,51,0.00,,,0.00,0,Wunderground v.1.15,2013-09-05 05:35:00,
2013-09-04 22:40:00,75.5,56.6,29.86,ESE,122,0.0,1.0,52,0.00,,,0.00,0,Wunderground v.1.15,2013-09-05 05:40:00,
2013-09-04 22:46:00,75.3,57.0,29.86,ESE,122,0.0,1.0,53,0.00,,,0.00,0,Wunderground v.1.15,2013-09-05 05:46:00,
2013-09-04 22:51:00,75.5,57.2,29.86,ESE,111,0.0,0.0,53,0.00,,,0.00,0,Wunderground v.1.15,2013-09-05 05:51:00,
2013-09-04 22:57:00,75.5,56.6,29.86,ESE,122,0.0,2.0,52,0.00,,,0.00,0,Wunderground v.1.15,2013-09-05 05:57:00,
2013-09-04 23:02:00,74.8,57.0,29.85,SE,124,0.0,2.0,54,0.00,,,0.00,0,Wunderground v.1.15,2013-09-05 06:02:00,
2013-09-04 23:07:00,74.8,57.0,29.85,ESE,113,1.0,2.0,54,0.00,,,0.00,0,Wunderground v.1.15,2013-09-05 06:07:00,
2013-09-04 23:13:00,75.0,56.7,29.86,SE,125,1.0,2.0,53,0.00,,,0.00,0,Wunderground v.1.15,2013-09-05 06:13:00,
2013-09-04 23:18:00,74.7,56.9,29.85,ESE,109,1.0,3.0,54,0.00,,,0.00,0,Wunderground v.1.15,2013-09-05 06:18:00,
2013-09-04 23:24:00,74.8,57.0,29.85,ESE,113,1.0,1.0,54,0.00,,,0.00,0,Wunderground v.1.15,2013-09-05 06:24:00,
2013-09-04 23:29:00,74.7,56.9,29.85,ESE,117,0.0,0.0,54,0.00,,,0.00,0,Wunderground v.1.15,2013-09-05 06:29:00,
2013-09-04 23:34:00,74.3,56.6,29.85,ESE,123,1.0,2.0,54,0.00,,,0.00,0,Wunderground v.1.15,2013-09-05 06:34:00,
2013-09-04 23:40:00,74.1,56.9,29.85,SE,135,1.0,1.0,55,0.00,,,0.00,0,Wunderground v.1.15,2013-09-05 06:40:00,
2013-09-04 23:45:00,74.4,57.2,29.85,ESE,118,1.0,3.0,55,0.00,,,0.00,0,Wunderground v.1.15,2013-09-05 06:45:00,
2013-09-04 23:50:00,74.5,56.8,29.85,ESE,118,1.0,1.0,54,0.00,,,0.00,0,Wunderground v.1.15,2013-09-05 06:50:00,
2013-09-04 23:55:00,74.3,56.6,29.85,ESE,119,1.0,2.0,54,0.00,,,0.00,0,Wunderground v.1.15,2013-09-05 06:55:00,